Regional Weather Roundup
Issued by NWS Charleston, SC

Current Version | Previous Version | Graphics & Text | Print | Product List | Glossary On
Versions: 1 2 3 4 5 6 7 8 9 10 11 12 13 14 15 16 17 18 19 20 21 22 23 24 25 26 27 28 29 30 31 32 33 34 35 36 37 38 39 40 41 42 43 44 45 46 47 48 49 50
000 ASUS42 KCHS 031627 RWRCHS REGIONAL WEATHER ROUNDUP NATIONAL WEATHER SERVICE CHARLESTON SC 1200 PM EDT FRI JUL 03 2015 NOTE: "FAIR" INDICATES FEW OR NO CLOUDS BELOW 12,000 FEET WITH NO SIGNIFICANT WEATHER AND/OR OBSTRUCTIONS TO VISIBILITY. NOT ALL STATIONS ARE QUALITY CONTROLLED BY THE NATIONAL WEATHER SERVICE. USE DATA WITH CAUTION...ESPECIALLY DEWPOINT OBSERVATIONS. SCZ027-030-031-034>040-042>050-031700- ...SOUTHEAST SOUTH CAROLINA... CITY SKY/WX TMP DP RH WIND PRES REMARKS N CHARLESTON PTSUNNY 83 73 72 SW12G17 30.02S WATERFRONT PAR N/A 81 74 79 W7 30.00R MOUNT PLEASANT FAIR 82 75 78 SW7 30.02F JOHNS ISLAND PTSUNNY 84 75 74 SW10 30.02F HX 92 PINOPOLIS NOT AVBL MONCKS CORNER FAIR 86 72 62 SW9 30.00S HX 92 SUMMERVILLE FAIR 82 73 74 SW6 30.02S BEAUFORT MCAS MOSUNNY 85 74 69 W10 30.03S HX 92 BEAUFORT ARPT FAIR 86 75 70 SW10G16 30.02F HX 95 HILTON HEAD IS MOSUNNY 84 72 65 SW10 30.05R WALTERBORO MOSUNNY 82 72 69 SW9G17 30.01F ALLENDALE FAIR 84 75 74 VRB7G15 30.00S HX 92 ...SOUTHERN MIDLANDS AND PEE DEE... CITY SKY/WX TMP DP RH WIND PRES REMARKS GEORGETOWN NOT AVBL KINGSTREE NOT AVBL ORANGEBURG PTSUNNY 82 72 71 W20 29.99S BARNWELL CLOUDY 82 75 78 W8 30.01R AIKEN NOT AVBL MANNING FAIR 79 70 73 SW8 30.00R COLUMBIA LGT RAIN 80 68 66 W13 29.96F SUMTER CLOUDY 81 72 72 SW15 29.96S FLORENCE HVY RAIN 75 73 93 S10 29.98S VSB 1 MYRTLE BEACH PTSUNNY 82 72 69 W8 30.02S N MYRTLE BEACH MOSUNNY 84 72 67 W6 29.99F $$ GAZ063-065-086>088-099>101-113>116-118-119-134>141-150-031700- ...SOUTHEAST GEORGIA... CITY SKY/WX TMP DP RH WIND PRES REMARKS SAVANNAH ARPT MOSUNNY 87 72 60 W14 30.04S HX 93 HUNTER AAF MOSUNNY 88 74 63 W9 30.02S HX 97 FORT STEWART MOSUNNY 87 72 59 W13 30.03S HX 93 STATESBORO NOT AVBL SYLVANIA MOSUNNY 87 76 69 W9G18 30.03S HX 97 CLAXTON FAIR 88 75 66 W9G16 30.04S HX 97 ...CSRA...CENTRAL AND FAR SOUTHEAST GEORGIA... CITY SKY/WX TMP DP RH WIND PRES REMARKS THOMSON CLOUDY 72 71 98 W8 30.08S AUGUSTA-BUSH LGT RAIN 75 70 84 NW13G20 30.03R AUGUSTA-DANIEL TSTM 72 69 90 W13G18 30.04R FOG SWAINSBORO FAIR 88 73 62 W13G22 30.05R HX 96 VIDALIA MOSUNNY 88 72 58 W12G18 30.05S HX 94 EASTMAN PTSUNNY 88 73 60 W13 30.07S HX 96 HAZLEHURST FAIR 89 71 55 SW9G16 30.05S HX 94 ALMA SUNNY 87 70 56 W12 30.07R HX 92 WAYCROSS SUNNY 91 75 61 W14 30.08S HX 101 JESUP FAIR 90 72 55 NW10G20 30.06F HX 96 BAXLEY FAIR 88 70 55 W15G22 30.06S HX 92 BRUNSWICK SUNNY 88 72 58 W10 30.08S HX 94 SAINT SIMONS SUNNY 87 69 54 W15 30.07S HX 91 $$ SCZ027-028-034-036>038-045-046-048>050-GAZ119-141-031700- ...LAKE AND SUPPLEMENTAL COASTAL OBSERVATIONS... STATION/POSITION TIME TEMP WIND PRES WAVE SWELL AIR SEA DIR/SP/G HT/PER HT/PER/DIR (UTC) (F) (DEG/KT/KT) (MB) (FT/S) (FT/S/D) UPR LAKE MARION NOT AVBL WINYAH BAY 1545 81 260/ 7 1015.0S LAKE MURRAY 1500 77 250/ 11/ 14 1014.2S ACE BASIN NERRS 1500 80 140/ 4 1017.0S FORT PULASKI 1600 86 83 250/ 10/ 13 1017.8R SAPELO ISLAND 1600 86 250/ 12 1018.0S $$ ANZ835-935-AMZ111-154-330-350-352-354-370-450-454-472-031700- ...C-MAN AND BUOY OBSERVATIONS... STATION/POSITION TIME TEMP WIND PRES WAVE SWELL AIR SEA DIR/SP/G HT/PER HT/PER/DIR (UTC) (F) (DEG/KT/KT) (MB) (FT/S) (FT/S/D) BUOY 41004 1550 80 81 230/ 16/ 19 1016.5R 4/ 5 2/ 9 BUOY 41008 1550 79 79 220/ 12/ 14 1018.4R 3/ 8 2/130/ 8 FOLLY BEACH CMAN 1600 80 220/ 15/ 17 1016.8R CAPERS NEARSHORE 1508 80 230/ 16/ 19 1017.0R FRIPP NEARSHORE 1500 83 260/ 10/ 12 1016.8R STATION/POSITION TIME TEMP WIND PRES WAVE SWELL AIR SEA DIR/SP/G HT/PER HT/PER/DIR (UTC) (F) (DEG/KT/KT) (MB) (FT/S) (FT/S/D) 5E ST. MARYS GA 1521 78 N/A 2/ 9 FRYING PAN BUOY 1550 80 79 230/ 19/ 23 1016.5R 6/ 6 2/220/11 BUOY 41025 1550 76 82 260/ 16/ 17 1015.7R 5/ 7 3/200/ 7 CAPE LOOKOUT NC 1600 79 240/ 9/ 12 1015.5F BUOY 41002 1550 77 80 280/ 21/ 27 1019.7R 6/ 7 2/ 20/15 BUOY 41010 1520 83 84 190/ 6/ 8 1020.4R ST AUGUSTINE FL 1600 86 73 280/ 7/ 9 1020.1R $$

USA.gov is the U.S. government's official web portal to all federal, state and local government web resources and services.